Location: Brachbach
(49.1847°N, 9.7240°E)
Time: 20:27:49
(UTC+00:00)

Cosmos 1455 Rocket - Pass Details

Date: 23 May 2024
Orbit: 602 x 625 km, 82.5° (Epoch: 24 June)

Event Time Altitude Azimuth Distance (km) Brightness Sun altitude
Rises 02:37:32 0° 355° (N) 2,882 7.1 -7.3°
Reaches altitude 10° 02:39:51 10° 3° (N) 1,977 6.4 -7.0°
Maximum altitude 02:44:01 42° 75° (ENE) 884 4.5 -6.5°
Drops below altitude 10° 02:48:10 10° 146° (SE) 1,975 5.6 -6.0°
Sets 02:50:29 0° 153° (SSE) 2,879 6.3 -5.7°
